{"data":{"norad_id":54195,"epoch":"2026-09-20T11:48:10.386432Z","epoch_age_seconds":90338,"freshness":"FRESH","line1":"1 54195U 22141AQ  26263.49178688  .00000663  00000+0  30769-4 0  9997","line2":"2 54195  53.1628 187.9297 0001250  69.5687 290.5450 15.34396714215560","mean_motion":15.34396714,"eccentricity":0.000125,"inclination_deg":53.1628,"raan_deg":187.9297,"arg_perigee_deg":69.5687,"mean_anomaly_deg":290.545,"bstar":3.0769e-5,"rev_number":21556,"period_min":93.847959061779,"perigee_km":461.85790065816,"apogee_km":463.56811315989,"semimajor_km":6840.850006909,"source":"CELESTRAK","updated_at":"2026-09-21T09:00:33.115486Z"}}